Location: Newark
(41.7772°N, 74.7403°W)
Time: 13:22:59
(UTC+00:00)

Transit 4A - Pass Details

Date: 31 May 2020
Orbit: 866 x 978 km, 66.8° (Epoch: 06 July)

Event Time Altitude Azimuth Distance (km) Brightness Sun altitude
Exits shadow 07:21:02 22° 254° (WSW) 1,806 9.0 -18.0°
Maximum altitude 07:24:13 39° 309° (NW) 1,286 8.6 -17.7°
Drops below altitude 10° 07:29:44 10° 18° (NNE) 2,565 11.3 -17.1°
Sets 07:32:27 0° 26° (NNE) 3,524 12.5 -16.8°
